This demonstration page uses our WeatherBlox Daily Observations layout. Learn more.

Left ArrowRight Arrow

Hourly Observations for March 10, 2019

Temp ( °F °C ) Dew Point ( °F °C ) Humidity (%) Winds ( mph kmh ) Pressure ( in mb ) Visibility ( mi km ) Precip ( " mm )
12:52 am 00:52 Mostly Cloudy 30 -1.1 22 -5.6 72 72 NW 18 30 29.93 1014 10 16 0.00 0.00
1:46 am 01:46 Partly Cloudy 28 -2 19 -7 69 69 NW 23 37 30.01 1016 10 16 0.00 0.00
1:52 am 01:52 Partly Cloudy 27 -2.8 20 -6.7 75 75 NW 15 24 29.98 1015 10 16 0.00 0.00
3:52 am 03:52 Clear 26 -3.3 18 -7.8 71 71 NW 18 30 30.00 1016 10 16 0.00 0.00
4:52 am 04:52 Clear 25 -3.9 15 -9.4 66 66 NNW 16 26 30.03 1017 10 16 0.00 0.00
5:52 am 05:52 Mostly Clear 24 -4.4 14 -10 65 65 NNW 13 20 30.05 1018 10 16 0.00 0.00
6:52 am 06:52 Partly Cloudy 23 -5 14 -10 68 68 NW 10 17 30.10 1019 10 16 0.00 0.00
7:52 am 07:52 Mostly Cloudy 23 -5 14 -10 68 68 W 13 20 30.13 1020 10 16 0.00 0.00
8:52 am 08:52 Mostly Cloudy 24 -4.4 14 -10 65 65 WNW 10 17 30.18 1022 10 16 0.00 0.00
9:52 am 09:52 Mostly Cloudy 25 -3.9 15 -9.4 66 66 WNW 15 24 30.22 1023 10 16 0.00 0.00
10:52 am 10:52 Mostly Cloudy 27 -2.8 16 -8.9 63 63 NW 14 22 30.25 1024 10 16 0.00 0.00
11:52 am 11:52 Mostly Cloudy 30 -1.1 17 -8.3 58 58 WNW 12 19 30.27 1025 10 16 0.00 0.00
12:52 pm 12:52 Mostly Cloudy 31 -0.6 17 -8.3 56 56 W 13 20 30.30 1026 10 16 0.00 0.00
1:52 pm 13:52 Mostly Cloudy 34 1.1 16 -8.9 48 48 WNW 10 17 30.32 1027 10 16 0.00 0.00
2:52 pm 14:52 Mostly Cloudy 35 1.7 16 -8.9 46 46 WNW 7 11 30.31 1026 10 16 0.00 0.00
3:52 pm 15:52 Mostly Sunny 36 2.2 19 -7.2 50 50 NW 8 13 30.31 1026 10 16 0.00 0.00
4:52 pm 16:52 Partly Cloudy 37 2.8 19 -7.2 48 48 NNW 5 7 30.31 1027 10 16 0.00 0.00
5:52 pm 17:52 Partly Cloudy 36 2.2 20 -6.7 52 52 NNW 6 9 30.31 1026 10 16 0.00 0.00
6:52 pm 18:52 Mostly Cloudy 32 0 21 -6.1 64 64 NNE 6 9 30.32 1027 10 16 0.00 0.00
7:52 pm 19:52 Mostly Cloudy 32 0 21 -6.1 64 64 N 3 6 30.33 1027 10 16 0.00 0.00
8:52 pm 20:52 Mostly Cloudy 32 0 21 -6.1 64 64 Calm 30.34 1027 10 16 0.00 0.00
9:52 pm 21:52 Mostly Cloudy 32 0 22 -5.6 66 66 Calm 30.34 1028 10 16 0.00 0.00
10:52 pm 22:52 Mostly Cloudy 30 -1.1 20 -6.7 66 66 Calm 30.36 1028 10 16 0.00 0.00
11:52 pm 23:52 Mostly Cloudy 29 -1.7 19 -7.2 66 66 Calm 30.37 1028 10 16 0.00 0.00

Powered by AerisWeather